| time (UTC) | temp F | wind direction | speed MPH | gust MPH | rain 1hr in | rain 24hr in | rain mn in | humidity % | barometer mb |
| 20260510125108 | 48 | 38 | 3.0 | 5.0 | 0.00 | 0.24 | 0.00 | 72 | 1016.4 |
| 20260510124608 | 48 | 38 | 3.0 | 8.0 | 0.00 | 0.24 | 0.00 | 72 | 1016.3 |
| 20260510124108 | 48 | 192 | 1.0 | 7.0 | 0.00 | 0.24 | 0.00 | 74 | 1016.1 |
| 20260510123608 | 47 | 143 | 1.0 | 1.0 | 0.00 | 0.25 | 0.00 | 77 | 1015.9 |
| 20260510122608 | 47 | 143 | 1.0 | 2.0 | 0.00 | 0.26 | 0.00 | 77 | 1015.9 |
| 20260510122108 | 48 | 176 | 1.0 | 2.0 | 0.00 | 0.27 | 0.00 | 77 | 1015.7 |
| 20260510121608 | 48 | 186 | 1.0 | 1.0 | 0.00 | 0.27 | 0.00 | 78 | 1015.6 |
| 20260510121108 | 48 | 186 | 1.0 | 6.0 | 0.00 | 0.27 | 0.00 | 78 | 1015.5 |
| 20260510120608 | 48 | 34 | 5.0 | 6.0 | 0.00 | 0.27 | 0.00 | 77 | 1015.6 |
| 20260510120108 | 48 | 34 | 5.0 | 6.0 | 0.00 | 0.27 | 0.00 | 77 | 1015.7 |
| 20260510115608 | 48 | 180 | 1.0 | 1.0 | 0.00 | 0.27 | 0.00 | 76 | 1015.3 |
| 20260510115107 | 48 | 180 | 1.0 | 1.0 | 0.00 | 0.27 | 0.00 | 76 | 1015.2 |
| 20260510114108 | 47 | 159 | 1.0 | 1.0 | 0.00 | 0.27 | 0.00 | 76 | 1015.0 |
| 20260510113608 | 47 | 159 | 1.0 | 1.0 | 0.00 | 0.27 | 0.00 | 76 | 1014.8 |
| 20260510113107 | 47 | 159 | 1.0 | 1.0 | 0.00 | 0.27 | 0.00 | 76 | 1014.7 |
| 20260510112608 | 47 | 159 | 1.0 | 1.0 | 0.00 | 0.27 | 0.00 | 76 | 1014.8 |
| 20260510112108 | 47 | 159 | 1.0 | 1.0 | 0.00 | 0.27 | 0.00 | 76 | 1014.7 |
| 20260510111608 | 47 | 159 | 1.0 | 1.0 | 0.00 | 0.27 | 0.00 | 76 | 1014.9 |
| 20260510110608 | 45 | 184 | 0.0 | 0.0 | 0.00 | 0.27 | 0.00 | 82 | 1014.3 |
| 20260510110108 | 45 | 184 | 0.0 | 0.0 | 0.00 | 0.27 | 0.00 | 82 | 1014.2 |
| 20260510105608 | 45 | 184 | 0.0 | 0.0 | 0.00 | 0.27 | 0.00 | 82 | 1014.1 |
| 20260510105108 | 45 | 184 | 0.0 | 0.0 | 0.00 | 0.27 | 0.00 | 82 | 1014.0 |
| 20260510104108 | 45 | 184 | 0.0 | 0.0 | 0.00 | 0.27 | 0.00 | 82 | 1014.0 |
| 20260510103608 | 45 | 184 | 0.0 | 0.0 | 0.00 | 0.27 | 0.00 | 82 | 1013.9 |
| 20260510103108 | 45 | 184 | 0.0 | 0.0 | 0.00 | 0.27 | 0.00 | 82 | 1013.8 |
| 20260510102608 | 45 | 184 | 0.0 | 0.0 | 0.00 | 0.27 | 0.00 | 82 | 1013.3 |
| 20260510102108 | 45 | 184 | 0.0 | 0.0 | 0.00 | 0.27 | 0.00 | 82 | 1013.4 |
| 20260510101608 | 45 | 184 | 0.0 | 0.0 | 0.00 | 0.27 | 0.00 | 82 | 1013.4 |
| 20260510100608 | 45 | 184 | 0.0 | 0.0 | 0.00 | 0.27 | 0.00 | 82 | 1013.2 |
| 20260510100108 | 45 | 184 | 0.0 | 0.0 | 0.00 | 0.27 | 0.00 | 82 | 1013.1 |
| 20260510095607 | 45 | 184 | 0.0 | 0.0 | 0.00 | 0.27 | 0.00 | 82 | 1013.0 |
| 20260510095108 | 45 | 184 | 0.0 | 0.0 | 0.00 | 0.27 | 0.00 | 82 | 1012.8 |
| 20260510024609 | 54 | 188 | 0.0 | 0.0 | 0.00 | 0.27 | 0.09 | 88 | 1008.7 |
| 20260510024110 | 55 | 178 | 0.0 | 0.0 | 0.00 | 0.27 | 0.09 | 88 | 1008.6 |
| 20260510023610 | 55 | 163 | 0.0 | 0.0 | 0.01 | 0.27 | 0.09 | 87 | 1009.0 |
| 20260510023110 | 55 | 189 | 0.0 | 0.0 | 0.01 | 0.27 | 0.09 | 87 | 1008.7 |
| 20260510022609 | 56 | 187 | 0.0 | 0.0 | 0.02 | 0.27 | 0.09 | 87 | 1008.6 |
| 20260510022110 | 56 | 188 | 0.0 | 0.0 | 0.02 | 0.27 | 0.09 | 87 | 1008.8 |
| 20260510021609 | 56 | 195 | 0.0 | 0.0 | 0.02 | 0.27 | 0.09 | 86 | 1008.8 |
| 20260510021109 | 56 | 189 | 0.0 | 0.0 | 0.02 | 0.27 | 0.09 | 86 | 1008.7 |
| 20260510020610 | 56 | 177 | 0.0 | 1.0 | 0.02 | 0.27 | 0.09 | 85 | 1008.5 |
| 20260510020110 | 56 | 187 | 0.0 | 1.0 | 0.02 | 0.27 | 0.09 | 85 | 1008.2 |
| 20260510015610 | 56 | 183 | 1.0 | 2.0 | 0.02 | 0.27 | 0.09 | 85 | 1008.5 |
| 20260510015110 | 56 | 197 | 1.0 | 2.0 | 0.02 | 0.27 | 0.09 | 85 | 1008.0 |
| 20260510014609 | 56 | 222 | 3.0 | 5.0 | 0.02 | 0.27 | 0.09 | 86 | 1007.9 |
| 20260510014109 | 56 | 128 | 3.0 | 10.0 | 0.02 | 0.27 | 0.09 | 86 | 1007.8 |
| 20260510013610 | 55 | 115 | 2.0 | 10.0 | 0.01 | 0.28 | 0.08 | 88 | 1008.5 |
| 20260510013110 | 55 | 196 | 0.0 | 2.0 | 0.01 | 0.29 | 0.08 | 88 | 1008.3 |
| 20260510012609 | 55 | 214 | 1.0 | 1.0 | 0.00 | 0.31 | 0.07 | 88 | 1008.0 |
| 20260510012109 | 55 | 189 | 0.0 | 0.0 | 0.00 | 0.31 | 0.07 | 88 | 1007.8 |
| 20260510011610 | 55 | 189 | 0.0 | 0.0 | 0.00 | 0.31 | 0.07 | 88 | 1007.9 |
| 20260510011110 | 55 | 186 | 0.0 | 2.0 | 0.00 | 0.32 | 0.07 | 88 | 1007.7 |
| 20260510010110 | 55 | 186 | 0.0 | 2.0 | 0.00 | 0.32 | 0.07 | 87 | 1007.6 |
| 20260510005110 | 55 | 192 | 0.0 | 1.0 | 0.00 | 0.33 | 0.07 | 87 | 1007.5 |
| 20260510004609 | 55 | 190 | 0.0 | 1.0 | 0.01 | 0.33 | 0.07 | 86 | 1007.3 |
| 20260510004110 | 56 | 170 | 0.0 | 0.0 | 0.01 | 0.33 | 0.07 | 86 | 1007.3 |
| 20260510003610 | 56 | 187 | 0.0 | 0.0 | 0.02 | 0.33 | 0.07 | 86 | 1007.4 |
| 20260510003110 | 56 | 185 | 0.0 | 0.0 | 0.02 | 0.33 | 0.07 | 85 | 1007.4 |
| 20260510002609 | 56 | 183 | 0.0 | 1.0 | 0.02 | 0.33 | 0.07 | 84 | 1007.2 |
| 20260510002109 | 56 | 187 | 0.0 | 1.0 | 0.02 | 0.33 | 0.07 | 84 | 1007.4 |
| 20260510001610 | 56 | 186 | 0.0 | 2.0 | 0.05 | 0.33 | 0.07 | 84 | 1007.1 |
| 20260510000610 | 56 | 188 | 1.0 | 2.0 | 0.07 | 0.33 | 0.07 | 84 | 1007.5 |
| 20260510000110 | 56 | 192 | 2.0 | 3.0 | 0.07 | 0.34 | 0.07 | 85 | 1007.5 |
| 20260509235609 | 56 | 212 | 1.0 | 3.0 | 0.07 | 0.34 | 0.07 | 86 | 1007.6 |
| 20260509234609 | 56 | 198 | 2.0 | 3.0 | 0.06 | 0.33 | 0.06 | 86 | 1008.0 |
| 20260509234110 | 56 | 349 | 2.0 | 6.0 | 0.06 | 0.33 | 0.06 | 86 | 1007.7 |
| 20260509233610 | 56 | 1 | 3.0 | 7.0 | 0.05 | 0.32 | 0.05 | 85 | 1007.7 |
| 20260509233110 | 56 | 36 | 3.0 | 7.0 | 0.05 | 0.32 | 0.05 | 85 | 1007.5 |
| 20260509232610 | 56 | 171 | 2.0 | 6.0 | 0.05 | 0.32 | 0.05 | 84 | 1007.9 |
| 20260509232110 | 57 | 45 | 2.0 | 8.0 | 0.05 | 0.32 | 0.05 | 82 | 1007.6 |
| 20260509231609 | 59 | 288 | 2.0 | 10.0 | 0.02 | 0.29 | 0.02 | 79 | 1007.8 |
| 20260509231109 | 61 | 89 | 4.0 | 10.0 | 0.00 | 0.27 | 0.00 | 71 | 1007.3 |
| 20260509230610 | 67 | 6 | 8.0 | 16.0 | 0.00 | 0.27 | 0.00 | 62 | 1007.1 |
| 20260509225609 | 67 | 218 | 5.0 | 8.0 | 0.00 | 0.27 | 0.00 | 58 | 1006.0 |
| 20260509224609 | 68 | 211 | 6.0 | 10.0 | 0.00 | 0.27 | 0.00 | 56 | 1005.9 |
| 20260509223610 | 69 | 230 | 4.0 | 13.0 | 0.00 | 0.27 | 0.00 | 55 | 1005.7 |
| 20260509223109 | 68 | 219 | 3.0 | 10.0 | 0.00 | 0.27 | 0.00 | 55 | 1005.7 |
| 20260509222109 | 68 | 247 | 8.0 | 18.0 | 0.00 | 0.27 | 0.00 | 54 | 1005.6 |
| 20260509221610 | 68 | 227 | 6.0 | 17.0 | 0.00 | 0.27 | 0.00 | 54 | 1005.5 |
| 20260509221109 | 68 | 181 | 6.0 | 12.0 | 0.00 | 0.27 | 0.00 | 54 | 1005.7 |
| 20260509220610 | 69 | 236 | 6.0 | 17.0 | 0.00 | 0.27 | 0.00 | 54 | 1005.6 |
| 20260509220110 | 68 | 214 | 6.0 | 12.0 | 0.00 | 0.27 | 0.00 | 53 | 1005.4 |
| 20260509215609 | 68 | 247 | 7.0 | 17.0 | 0.00 | 0.27 | 0.00 | 54 | 1005.7 |
| 20260509215110 | 69 | 209 | 7.0 | 20.0 | 0.00 | 0.27 | 0.00 | 54 | 1005.6 |
| 20260509214610 | 70 | 120 | 5.0 | 12.0 | 0.00 | 0.27 | 0.00 | 53 | 1005.5 |
| 20260509214110 | 69 | 249 | 6.0 | 10.0 | 0.00 | 0.27 | 0.00 | 53 | 1005.5 |
| 20260509213609 | 69 | 227 | 8.0 | 20.0 | 0.00 | 0.27 | 0.00 | 53 | 1005.5 |
| 20260509212609 | 70 | 226 | 9.0 | 12.0 | 0.00 | 0.27 | 0.00 | 54 | 1005.7 |
| 20260509212110 | 70 | 248 | 7.0 | 12.0 | 0.00 | 0.27 | 0.00 | 53 | 1005.4 |
| 20260509211609 | 70 | 208 | 6.0 | 10.0 | 0.00 | 0.27 | 0.00 | 55 | 1005.5 |
| 20260509210610 | 70 | 232 | 7.0 | 17.0 | 0.00 | 0.27 | 0.00 | 55 | 1005.6 |
| 20260509205610 | 69 | 209 | 7.0 | 15.0 | 0.00 | 0.27 | 0.00 | 54 | 1005.7 |
| 20260509205110 | 70 | 244 | 6.0 | 15.0 | 0.00 | 0.27 | 0.00 | 54 | 1005.9 |
| 20260509204610 | 69 | 229 | 7.0 | 15.0 | 0.00 | 0.27 | 0.00 | 55 | 1005.8 |
| 20260509204110 | 69 | 142 | 8.0 | 14.0 | 0.00 | 0.27 | 0.00 | 55 | 1005.9 |
| 20260509203609 | 69 | 237 | 6.0 | 14.0 | 0.00 | 0.27 | 0.00 | 57 | 1006.0 |
| 20260509203109 | 69 | 211 | 7.0 | 20.0 | 0.00 | 0.27 | 0.00 | 56 | 1006.2 |
| 20260509202609 | 70 | 260 | 6.0 | 20.0 | 0.00 | 0.27 | 0.00 | 55 | 1006.4 |
| 20260509202110 | 69 | 212 | 5.0 | 7.0 | 0.00 | 0.27 | 0.00 | 56 | 1006.3 |
| 20260509201609 | 69 | 205 | 7.0 | 15.0 | 0.00 | 0.27 | 0.00 | 57 | 1006.4 |
| 20260509201109 | 70 | 135 | 6.0 | 13.0 | 0.00 | 0.27 | 0.00 | 55 | 1006.4 |
| 20260509200109 | 69 | 227 | 5.0 | 9.0 | 0.00 | 0.27 | 0.00 | 57 | 1006.5 |
| 20260509195109 | 69 | 182 | 7.0 | 10.0 | 0.00 | 0.27 | 0.00 | 57 | 1006.6 |
| 20260509194610 | 69 | 207 | 10.0 | 17.0 | 0.00 | 0.27 | 0.00 | 57 | 1006.6 |
| 20260509194109 | 69 | 220 | 6.0 | 12.0 | 0.00 | 0.27 | 0.00 | 58 | 1006.6 |
| 20260509193610 | 69 | 248 | 5.0 | 13.0 | 0.00 | 0.27 | 0.00 | 59 | 1006.7 |
| 20260509192610 | 69 | 219 | 7.0 | 17.0 | 0.00 | 0.27 | 0.00 | 58 | 1007.0 |
| 20260509192109 | 69 | 210 | 4.0 | 10.0 | 0.00 | 0.27 | 0.00 | 58 | 1007.0 |
| 20260509191609 | 68 | 210 | 7.0 | 12.0 | 0.00 | 0.27 | 0.00 | 57 | 1006.8 |
| 20260509191110 | 68 | 225 | 10.0 | 20.0 | 0.00 | 0.27 | 0.00 | 56 | 1006.8 |
| 20260509190609 | 68 | 246 | 6.0 | 12.0 | 0.00 | 0.27 | 0.00 | 58 | 1006.9 |
| 20260509190109 | 68 | 143 | 10.0 | 16.0 | 0.00 | 0.27 | 0.00 | 59 | 1007.0 |
| 20260509185609 | 68 | 252 | 9.0 | 16.0 | 0.00 | 0.27 | 0.00 | 59 | 1006.8 |
| 20260509185109 | 67 | 249 | 9.0 | 17.0 | 0.00 | 0.27 | 0.00 | 59 | 1007.1 |
| 20260509184109 | 68 | 269 | 8.0 | 22.0 | 0.00 | 0.27 | 0.00 | 58 | 1007.0 |
| 20260509183610 | 67 | 180 | 6.0 | 14.0 | 0.00 | 0.27 | 0.00 | 63 | 1007.4 |
| 20260509183110 | 67 | 211 | 9.0 | 13.0 | 0.00 | 0.27 | 0.00 | 62 | 1007.2 |
| 20260509182609 | 66 | 237 | 6.0 | 12.0 | 0.00 | 0.27 | 0.00 | 62 | 1007.1 |
| 20260509182109 | 65 | 194 | 7.0 | 17.0 | 0.00 | 0.27 | 0.00 | 63 | 1007.4 |
| 20260509181610 | 65 | 233 | 6.0 | 9.0 | 0.00 | 0.27 | 0.00 | 64 | 1007.5 |
| 20260509181109 | 65 | 230 | 5.0 | 16.0 | 0.00 | 0.27 | 0.00 | 66 | 1007.4 |
| 20260509180610 | 64 | 231 | 9.0 | 16.0 | 0.00 | 0.27 | 0.00 | 65 | 1007.1 |
| 20260509180109 | 65 | 156 | 6.0 | 14.0 | 0.00 | 0.27 | 0.00 | 63 | 1007.2 |
| 20260509175109 | 64 | 184 | 3.0 | 9.0 | 0.00 | 0.27 | 0.00 | 66 | 1007.5 |
| 20260509174609 | 64 | 231 | 5.0 | 9.0 | 0.00 | 0.27 | 0.00 | 65 | 1007.6 |
| 20260509174109 | 64 | 214 | 8.0 | 13.0 | 0.00 | 0.27 | 0.00 | 65 | 1007.5 |
| 20260509173609 | 64 | 259 | 5.0 | 13.0 | 0.00 | 0.27 | 0.00 | 66 | 1007.7 |
| 20260509173109 | 64 | 210 | 5.0 | 14.0 | 0.00 | 0.27 | 0.00 | 67 | 1007.5 |
| 20260509172609 | 64 | 249 | 7.0 | 16.0 | 0.00 | 0.27 | 0.00 | 67 | 1007.4 |
| 20260509172109 | 64 | 219 | 5.0 | 14.0 | 0.00 | 0.27 | 0.00 | 67 | 1007.6 |
| 20260509171609 | 64 | 199 | 6.0 | 14.0 | 0.00 | 0.27 | 0.00 | 68 | 1007.7 |
| 20260509171109 | 64 | 171 | 6.0 | 14.0 | 0.00 | 0.27 | 0.00 | 67 | 1007.8 |
| 20260509170610 | 64 | 219 | 6.0 | 14.0 | 0.00 | 0.27 | 0.00 | 66 | 1007.8 |
| 20260509170109 | 64 | 186 | 7.0 | 13.0 | 0.00 | 0.28 | 0.00 | 68 | 1007.6 |
| 20260509165609 | 64 | 137 | 2.0 | 8.0 | 0.00 | 0.28 | 0.00 | 68 | 1007.7 |
| 20260509165110 | 64 | 224 | 2.0 | 3.0 | 0.00 | 0.28 | 0.00 | 69 | 1007.6 |
| 20260509164609 | 64 | 224 | 2.0 | 7.0 | 0.00 | 0.28 | 0.00 | 69 | 1007.7 |
| 20260509164110 | 64 | 236 | 5.0 | 10.0 | 0.00 | 0.28 | 0.00 | 68 | 1007.7 |
| 20260509163609 | 62 | 260 | 2.0 | 6.0 | 0.00 | 0.28 | 0.00 | 68 | 1007.7 |
| 20260509163109 | 63 | 224 | 5.0 | 8.0 | 0.00 | 0.28 | 0.00 | 70 | 1007.5 |
| 20260509162109 | 62 | 280 | 6.0 | 9.0 | 0.00 | 0.28 | 0.00 | 70 | 1007.5 |
| 20260509161609 | 62 | 213 | 6.0 | 9.0 | 0.00 | 0.28 | 0.00 | 70 | 1007.6 |
| 20260509161110 | 62 | 216 | 5.0 | 7.0 | 0.00 | 0.28 | 0.00 | 71 | 1007.6 |
| 20260509160609 | 62 | 151 | 2.0 | 6.0 | 0.00 | 0.28 | 0.00 | 71 | 1007.8 |
| 20260509160109 | 61 | 187 | 3.0 | 9.0 | 0.00 | 0.28 | 0.00 | 71 | 1007.9 |
| 20260509155609 | 61 | 230 | 5.0 | 8.0 | 0.00 | 0.29 | 0.00 | 72 | 1008.0 |
| 20260509154609 | 60 | 207 | 4.0 | 7.0 | 0.00 | 0.30 | 0.00 | 73 | 1008.0 |
| 20260509154109 | 60 | 248 | 5.0 | 9.0 | 0.00 | 0.30 | 0.00 | 72 | 1007.9 |
| 20260509153609 | 61 | 253 | 4.0 | 10.0 | 0.00 | 0.30 | 0.00 | 72 | 1007.9 |
| 20260509153110 | 60 | 245 | 2.0 | 8.0 | 0.00 | 0.30 | 0.00 | 72 | 1008.0 |
| 20260509152609 | 59 | 235 | 3.0 | 8.0 | 0.00 | 0.30 | 0.00 | 75 | 1008.3 |
| 20260509152109 | 59 | 251 | 3.0 | 8.0 | 0.00 | 0.30 | 0.00 | 77 | 1008.1 |
| 20260509151610 | 59 | 97 | 2.0 | 8.0 | 0.00 | 0.31 | 0.00 | 76 | 1007.9 |
| 20260509150610 | 58 | 226 | 3.0 | 9.0 | 0.00 | 0.31 | 0.00 | 77 | 1008.0 |
| 20260509145610 | 58 | 234 | 7.0 | 9.0 | 0.00 | 0.31 | 0.00 | 78 | 1008.1 |
| 20260509144109 | 56 | 230 | 6.0 | 9.0 | 0.00 | 0.31 | 0.00 | 82 | 1008.2 |
| 20260509143610 | 56 | 222 | 6.0 | 9.0 | 0.00 | 0.31 | 0.00 | 82 | 1008.0 |
| 20260509143109 | 57 | 221 | 5.0 | 8.0 | 0.00 | 0.31 | 0.00 | 82 | 1008.0 |
| 20260509142109 | 56 | 237 | 3.0 | 8.0 | 0.00 | 0.31 | 0.00 | 84 | 1007.9 |
| 20260509141609 | 56 | 224 | 5.0 | 14.0 | 0.00 | 0.31 | 0.00 | 84 | 1008.2 |
| 20260509141109 | 56 | 234 | 6.0 | 12.0 | 0.00 | 0.31 | 0.00 | 85 | 1007.8 |
| 20260509140609 | 56 | 245 | 3.0 | 14.0 | 0.00 | 0.31 | 0.00 | 86 | 1007.7 |
| 20260509140110 | 56 | 151 | 7.0 | 14.0 | 0.00 | 0.31 | 0.00 | 87 | 1007.7 |
| 20260509135610 | 55 | 236 | 6.0 | 8.0 | 0.00 | 0.31 | 0.00 | 87 | 1007.8 |
| 20260509134609 | 55 | 218 | 5.0 | 8.0 | 0.00 | 0.31 | 0.00 | 88 | 1007.8 |
| 20260509134109 | 55 | 225 | 6.0 | 7.0 | 0.00 | 0.31 | 0.00 | 89 | 1007.8 |
| 20260509133109 | 54 | 186 | 5.0 | 9.0 | 0.00 | 0.31 | 0.00 | 91 | 1007.9 |
| 20260509131610 | 54 | 186 | 5.0 | 9.0 | 0.00 | 0.32 | 0.00 | 91 | 1008.0 |
| 20260509131109 | 54 | 186 | 5.0 | 9.0 | 0.00 | 0.32 | 0.00 | 91 | 1008.0 |
| 20260509130109 | 54 | 186 | 5.0 | 9.0 | 0.00 | 0.32 | 0.00 | 91 | 1008.0 |
| 20260509125609 | 54 | 186 | 5.0 | 9.0 | 0.00 | 0.32 | 0.00 | 91 | 1007.9 |